GW2742 Weather Reports


time (UTC)temp
F
wind
direction
speed
knots
gust
knots
rain 1hr
in
rain 24hr
in
rain mn
in
humidity
%
barometer
mb
20260831084028 48 0 0.9 1.7 0.00 0.00 0.00 85 1015.6
20260831083525 48 0 0.0 2.6 0.00 0.00 0.00 85 1015.5
20260831083046 47 0 0.0 2.6 0.00 0.00 0.00 85 1015.4
20260831082530 47 186 0.9 2.6 0.00 0.00 0.00 84 1015.4
20260831082024 48 186 1.7 2.6 0.00 0.00 0.00 83 1015.4
20260831081551 48 0 0.0 2.6 0.00 0.00 0.00 81 1015.4
20260831081025 49 0 0.0 3.5 0.00 0.00 0.00 81 1015.4
20260831080528 49 0 1.7 3.5 0.00 0.00 0.00 81 1015.4
20260831080046 50 0 0.0 1.7 0.00 0.00 0.00 83 1015.4
20260831075525 50 0 0.0 1.7 0.00 0.00 0.00 82 1015.2
20260831075031 50 0 0.0 1.7 0.00 0.00 0.00 82 1015.2
20260831074557 50 205 0.0 1.7 0.00 0.00 0.00 82 1015.2
20260831074029 50 205 0.0 1.7 0.00 0.00 0.00 82 1015.4
20260831073526 50 205 0.0 1.7 0.00 0.00 0.00 82 1015.4
20260831073051 50 205 0.0 1.7 0.00 0.00 0.00 82 1015.4
20260831072526 51 205 0.0 1.7 0.00 0.00 0.00 81 1015.3
20260831072026 51 205 0.0 1.7 0.00 0.00 0.00 81 1015.2
20260831071605 51 205 0.9 1.7 0.00 0.00 0.00 81 1015.3
20260831071026 51 205 0.0 1.7 0.00 0.00 0.00 80 1015.2
20260831070528 51 205 0.0 1.7 0.00 0.00 0.00 79 1015.3
20260831070047 52 205 0.0 1.7 0.00 0.00 0.00 78 1015.3
20260831065530 52 0 0.0 1.7 0.00 0.00 0.00 78 1015.2
20260831065032 52 0 0.9 2.6 0.00 0.00 0.00 78 1015.2
20260831064605 52 205 0.0 2.6 0.00 0.00 0.00 78 1015.2
20260831064031 53 204 0.9 3.5 0.00 0.00 0.00 78 1015.1
20260831063527 53 200 0.9 3.5 0.00 0.00 0.00 77 1015.1
20260831063052 53 198 1.7 2.6 0.00 0.00 0.00 77 1015.2
20260831062531 53 241 0.0 2.6 0.00 0.00 0.00 77 1015.2
20260831062025 53 259 0.9 2.6 0.00 0.00 0.00 77 1015.2
20260831061548 54 181 1.7 2.6 0.00 0.00 0.00 77 1015.2
20260831061025 54 239 0.9 2.6 0.00 0.00 0.00 76 1015.2
20260831060528 54 225 0.9 2.6 0.00 0.00 0.00 76 1015.1
20260831060104 54 226 0.9 2.6 0.00 0.00 0.00 75 1015.2
20260831055535 54 0 0.0 0.0 0.00 0.00 0.00 74 1015.2
20260831055027 54 0 0.0 0.0 0.00 0.00 0.00 74 1015.2
20260831054547 54 0 0.0 0.0 0.00 0.00 0.00 74 1015.2
20260831054030 54 0 0.0 1.7 0.00 0.00 0.00 75 1015.1
20260831053527 54 0 0.0 1.7 0.00 0.00 0.00 75 1015.1
20260831053100 54 221 0.9 1.7 0.00 0.00 0.00 75 1015.0
20260831052525 54 221 0.0 2.6 0.00 0.00 0.00 74 1015.2
20260831052027 54 0 0.0 2.6 0.00 0.00 0.00 73 1015.2
20260831051557 55 210 0.0 2.6 0.00 0.00 0.00 73 1015.0
20260831051027 55 210 0.0 3.5 0.00 0.00 0.00 72 1015.0
20260831050528 55 210 0.9 3.5 0.00 0.00 0.00 71 1015.0
20260831050055 55 0 0.0 1.7 0.00 0.00 0.00 72 1015.0
20260831045527 55 0 0.0 1.7 0.00 0.00 0.00 72 1015.1
20260831045028 55 43 0.9 1.7 0.00 0.00 0.00 73 1015.0
20260831044549 55 35 0.0 0.9 0.00 0.00 0.00 72 1014.9
20260831044029 56 0 0.0 0.9 0.00 0.00 0.00 72 1015.0
20260831043527 56 0 0.0 0.9 0.00 0.00 0.00 71 1014.9
20260831043053 56 0 0.0 0.9 0.00 0.00 0.00 71 1015.0
20260831042528 56 0 0.0 1.7 0.00 0.00 0.00 71 1015.0
20260831042027 56 0 0.0 1.7 0.00 0.00 0.00 72 1015.0
20260831041550 56 35 0.0 1.7 0.00 0.00 0.00 70 1015.0
20260831041030 56 0 0.0 1.7 0.00 0.00 0.00 69 1015.0
20260831040528 57 0 0.0 1.7 0.00 0.00 0.00 69 1014.8
20260831040054 57 35 0.0 1.7 0.00 0.00 0.00 69 1014.9
20260831035526 57 0 0.0 2.6 0.00 0.00 0.00 67 1014.8
20260831035028 58 0 0.0 2.6 0.00 0.00 0.00 68 1014.9
20260831034547 58 35 0.9 2.6 0.00 0.00 0.00 67 1015.0
20260831034027 58 35 0.9 1.7 0.00 0.00 0.00 64 1015.0
20260831033528 59 0 0.0 0.0 0.00 0.00 0.00 65 1014.7
20260831033052 59 0 0.0 1.7 0.00 0.00 0.00 63 1014.6
20260831032528 59 0 0.0 1.7 0.00 0.00 0.00 63 1014.8
20260831032030 60 56 0.0 1.7 0.00 0.00 0.00 63 1014.5
20260831031553 60 0 0.0 0.9 0.00 0.00 0.00 61 1014.4
20260831031032 61 0 0.0 1.7 0.00 0.00 0.00 60 1014.4
20260831030525 61 0 0.0 1.7 0.00 0.00 0.00 59 1014.3
20260831030050 61 0 0.0 1.7 0.00 0.00 0.00 58 1014.2
20260831025528 62 0 0.0 1.7 0.00 0.00 0.00 58 1014.3
20260831025028 62 0 0.0 1.7 0.00 0.00 0.00 56 1014.2
20260831024546 62 0 0.0 1.7 0.00 0.00 0.00 55 1014.0
20260831024028 63 55 0.0 1.7 0.00 0.00 0.00 55 1014.0
20260831023528 63 0 0.0 2.6 0.00 0.00 0.00 55 1013.9
20260831023107 63 0 0.0 2.6 0.00 0.00 0.00 55 1013.7
20260831022528 63 55 0.0 1.7 0.00 0.00 0.00 55 1013.7
20260831022027 64 0 0.0 1.7 0.00 0.00 0.00 53 1013.7
20260831021553 64 0 0.0 0.0 0.00 0.00 0.00 53 1013.6
20260831021031 65 0 0.0 0.0 0.00 0.00 0.00 53 1013.5
20260831020527 66 0 0.0 0.0 0.00 0.00 0.00 52 1013.4
20260831020109 66 0 0.0 0.0 0.00 0.00 0.00 51 1013.4
20260831015527 67 0 0.0 0.0 0.00 0.00 0.00 50 1013.3
20260831015025 68 0 0.0 0.0 0.00 0.00 0.00 50 1013.3
20260831014549 69 0 0.0 0.9 0.00 0.00 0.00 50 1013.2
20260831014028 69 0 0.0 1.7 0.00 0.00 0.00 49 1013.1
20260831013529 71 0 0.0 1.7 0.00 0.00 0.00 49 1013.2
20260831013047 72 0 0.0 0.0 0.00 0.00 0.00 44 1013.1
20260831012527 73 0 0.0 0.0 0.00 0.00 0.00 42 1013.1
20260831012028 73 0 0.0 0.0 0.00 0.00 0.00 43 1013.0
20260831011556 74 0 0.0 0.0 0.00 0.00 0.00 45 1012.9
20260831011028 74 0 0.0 0.0 0.00 0.00 0.00 42 1012.9
20260831010526 75 0 0.0 0.0 0.00 0.00 0.00 45 1013.1
20260831010052 76 0 0.0 0.0 0.00 0.00 0.00 43 1013.0
20260831005528 76 0 0.0 0.0 0.00 0.00 0.00 41 1012.8
20260831005027 76 0 0.0 0.0 0.00 0.00 0.00 41 1012.8
20260831004549 76 0 0.0 0.0 0.00 0.00 0.00 41 1012.8
20260831004028 76 0 0.0 0.0 0.00 0.00 0.00 41 1013.0
20260831003528 77 0 0.0 0.9 0.00 0.00 0.00 40 1012.9
20260831003050 77 0 0.0 1.7 0.00 0.00 0.00 44 1013.0
20260831002524 76 295 0.0 1.7 0.00 0.00 0.00 40 1013.0
20260831002033 76 294 0.0 1.7 0.00 0.00 0.00 41 1012.9
20260831001549 76 0 0.0 1.7 0.00 0.00 0.00 44 1013.0
20260831001028 76 311 0.0 2.6 0.00 0.00 0.00 43 1013.0
20260831000528 75 0 0.0 2.6 0.00 0.00 0.00 43 1013.0
20260831000048 76 340 0.9 2.6 0.00 0.00 0.00 42 1012.8
20260830235527 76 239 0.0 1.7 0.00 0.00 0.00 41 1012.8
20260830235027 76 0 0.9 1.7 0.00 0.00 0.00 45 1012.8
20260830234548 76 0 0.0 2.6 0.00 0.00 0.00 43 1012.7
20260830234027 75 0 0.0 2.6 0.00 0.00 0.00 46 1012.8
20260830233524 75 340 0.0 2.6 0.00 0.00 0.00 44 1012.8
20260830233051 74 0 0.9 4.3 0.00 0.00 0.00 40 1013.0
20260830232527 74 24 1.7 5.2 0.00 0.00 0.00 43 1012.9
20260830232027 75 359 1.7 5.2 0.00 0.00 0.00 43 1012.8
20260830231546 75 0 0.9 5.2 0.00 0.00 0.00 44 1012.8
20260830231024 74 264 0.9 5.2 0.00 0.00 0.00 45 1012.8
20260830230525 74 344 2.6 6.1 0.00 0.00 0.00 45 1012.8
20260830230046 74 330 1.7 6.1 0.00 0.00 0.00 47 1012.8
20260830225524 74 345 2.6 7.0 0.00 0.00 0.00 46 1012.8
20260830225026 75 15 3.5 7.0 0.00 0.00 0.00 44 1012.7
20260830224556 75 1 1.7 5.2 0.00 0.00 0.00 48 1012.7
20260830224028 75 359 1.7 5.2 0.00 0.00 0.00 44 1012.6
20260830223525 75 343 0.9 5.2 0.00 0.00 0.00 45 1012.8
20260830223047 75 334 1.7 5.2 0.00 0.00 0.00 43 1012.7
20260830222525 75 249 1.7 6.1 0.00 0.00 0.00 47 1012.6
20260830222025 75 258 0.9 6.1 0.00 0.00 0.00 45 1012.8
20260830221549 75 333 2.6 6.1 0.00 0.00 0.00 44 1012.6
20260830221026 74 46 2.6 6.1 0.00 0.00 0.00 45 1012.8
20260830220528 74 273 1.7 4.3 0.00 0.00 0.00 44 1012.6
20260830220103 74 345 2.6 6.1 0.00 0.00 0.00 49 1012.6
20260830215529 74 54 0.9 6.1 0.00 0.00 0.00 46 1012.6
20260830215024 74 110 1.7 6.1 0.00 0.00 0.00 42 1012.7
20260830214547 74 53 2.6 7.8 0.00 0.00 0.00 43 1012.7
20260830214031 74 94 0.9 7.8 0.00 0.00 0.00 43 1012.8
20260830213527 74 166 2.6 7.8 0.00 0.00 0.00 45 1012.5
20260830213101 74 146 1.7 6.1 0.00 0.00 0.00 44 1012.7
20260830212524 74 22 2.6 6.1 0.00 0.00 0.00 44 1012.9
20260830212025 74 142 2.6 6.1 0.00 0.00 0.00 41 1013.0
20260830211556 74 90 0.9 3.5 0.00 0.00 0.00 47 1013.1
20260830211032 73 159 0.0 5.2 0.00 0.00 0.00 45 1013.1
20260830210527 73 0 1.7 5.2 0.00 0.00 0.00 43 1013.2
20260830210056 73 27 2.6 5.2 0.00 0.00 0.00 43 1013.3
20260830205527 73 45 1.7 5.2 0.00 0.00 0.00 43 1013.2
20260830205028 73 0 0.9 3.5 0.00 0.00 0.00 44 1013.2
20260830204600 73 282 1.7 3.5 0.00 0.00 0.00 43 1013.4
20260830204026 72 104 1.7 5.2 0.00 0.00 0.00 44 1013.5
20260830203524 72 284 0.9 6.1 0.00 0.00 0.00 44 1013.6
20260830203056 72 113 2.6 6.1 0.00 0.00 0.00 45 1013.5
20260830202528 72 103 1.7 6.1 0.00 0.00 0.00 47 1013.3
20260830202031 72 122 1.7 4.3 0.00 0.00 0.00 46 1013.3
20260830201547 72 53 1.7 6.1 0.00 0.00 0.00 44 1013.4
20260830201027 71 0 1.7 6.1 0.00 0.00 0.00 48 1013.5
20260830200524 72 61 2.6 7.0 0.00 0.00 0.00 51 1013.4
20260830200046 71 70 3.5 7.0 0.00 0.00 0.00 46 1013.4
20260830195528 71 93 1.7 7.0 0.00 0.00 0.00 49 1013.4
20260830195027 71 96 3.5 7.0 0.00 0.00 0.00 46 1013.5
20260830194557 71 27 1.7 5.2 0.00 0.00 0.00 45 1013.4
20260830194029 71 41 0.0 3.5 0.00 0.00 0.00 49 1013.3
20260830193525 70 112 1.7 3.5 0.00 0.00 0.00 52 1013.4
20260830193049 70 337 0.9 3.5 0.00 0.00 0.00 47 1013.5
20260830192528 69 0 0.9 7.0 0.00 0.00 0.00 49 1013.5
20260830192024 69 88 2.6 7.0 0.00 0.00 0.00 48 1013.8
20260830191545 69 29 1.7 7.8 0.00 0.00 0.00 52 1013.8
20260830191025 68 28 2.6 7.8 0.00 0.00 0.00 55 1013.9
20260830190527 68 50 3.5 7.8 0.00 0.00 0.00 52 1013.9
20260830190052 67 44 3.5 7.0 0.00 0.00 0.00 57 1013.9
20260830185525 66 36 3.5 7.8 0.00 0.00 0.00 60 1013.9
20260830185027 65 324 4.3 9.6 0.00 0.00 0.00 60 1013.8
20260830184553 65 1 2.6 10.4 0.00 0.00 0.00 64 1013.8
20260830184030 64 335 4.3 12.2 0.00 0.00 0.00 65 1013.7
20260830183531 63 313 4.3 12.2 0.00 0.00 0.00 66 1013.7
20260830183054 62 319 4.3 13.0 0.00 0.00 0.00 68 1013.8
20260830182525 63 353 6.1 13.0 0.00 0.00 0.00 68 1014.1
20260830182026 64 238 3.5 11.3 0.00 0.00 0.00 67 1014.3
20260830181547 63 341 4.3 13.0 0.00 0.00 0.00 68 1014.2
20260830181024 62 320 7.0 13.0 0.00 0.00 0.00 68 1014.3
20260830180528 62 315 5.2 13.0 0.00 0.00 0.00 70 1015.1
20260830180048 60 283 2.6 7.0 0.00 0.00 0.00 76 1014.8
20260830175527 58 285 2.6 8.7 0.00 0.00 0.00 77 1014.8
20260830175032 57 334 2.6 11.3 0.00 0.00 0.00 79 1014.4
20260830174547 57 273 3.5 11.3 0.00 0.00 0.00 80 1014.3
20260830174031 57 341 4.3 12.2 0.00 0.00 0.00 79 1014.3
20260830173529 57 359 4.3 13.9 0.00 0.00 0.00 78 1015.0
20260830173051 58 330 6.1 13.9 0.00 0.00 0.00 76 1015.1
20260830172527 59 325 5.2 13.0 0.00 0.00 0.00 71 1015.2
20260830172024 60 309 5.2 14.8 0.00 0.00 0.00 69 1015.1
20260830171548 60 326 7.0 18.2 0.00 0.00 0.00 68 1015.0
20260830171026 61 319 7.0 20.0 0.00 0.00 0.00 68 1015.0
20260830170525 63 323 8.7 20.0 0.00 0.00 0.00 65 1015.0
20260830170048 65 244 8.7 20.0 0.00 0.00 0.00 60 1014.8
20260830165531 67 345 8.7 17.4 0.00 0.00 0.00 58 1014.7
20260830165028 68 360 7.0 17.4 0.00 0.00 0.00 57 1014.6
20260830164549 71 330 3.5 13.9 0.00 0.00 0.00 58 1014.5
20260830164032 71 355 2.6 9.6 0.00 0.00 0.00 61 1014.4
20260830163525 70 227 1.7 6.1 0.00 0.00 0.00 57 1013.8
20260830163051 70 322 1.7 6.1 0.00 0.00 0.00 62 1013.4
20260830162528 70 269 0.9 6.1 0.00 0.00 0.00 60 1013.1
20260830162028 69 259 1.7 4.3 0.00 0.00 0.00 60 1013.1
20260830161601 69 328 1.7 6.1 0.00 0.00 0.00 59 1013.1
20260830161024 69 302 1.7 6.1 0.00 0.00 0.00 63 1012.9
20260830160528 68 343 0.0 4.3 0.00 0.00 0.00 64 1013.0
20260830160044 68 333 0.9 3.5 0.00 0.00 0.00 62 1012.8
20260830155529 68 294 0.9 2.6 0.00 0.00 0.00 61 1012.8
20260830155026 67 304 0.9 3.5 0.00 0.00 0.00 65 1012.6
20260830154552 67 229 0.0 4.3 0.00 0.00 0.00 66 1012.8
20260830154025 66 328 1.7 4.3 0.00 0.00 0.00 64 1012.8
20260830153526 66 328 1.7 5.2 0.00 0.00 0.00 64 1012.8
20260830153059 66 15 2.6 5.2 0.00 0.00 0.00 65 1012.9
20260830152527 66 359 1.7 4.3 0.00 0.00 0.00 65 1013.0
20260830152026 66 262 0.9 4.3 0.00 0.00 0.00 64 1012.8
20260830151554 65 349 0.9 2.6 0.00 0.00 0.00 66 1013.0
20260830151025 65 0 0.0 0.0 0.00 0.00 0.00 70 1013.0
20260830150526 64 0 0.0 2.6 0.00 0.00 0.00 70 1012.9
20260830150047 63 0 0.0 3.5 0.00 0.00 0.00 71 1012.8
20260830145528 63 335 0.9 3.5 0.00 0.00 0.00 71 1012.9
20260830145025 63 316 0.9 3.5 0.00 0.00 0.00 74 1012.8
20260830144545 62 0 1.7 3.5 0.00 0.00 0.00 75 1012.8
20260830144025 62 283 0.9 2.6 0.00 0.00 0.00 74 1012.9
20260830143527 61 0 0.0 1.7 0.00 0.00 0.00 78 1012.7
20260830143103 60 0 0.0 3.5 0.00 0.00 0.00 77 1012.8
20260830142524 59 0 0.0 3.5 0.00 0.00 0.00 79 1012.9
20260830142025 58 181 0.0 3.5 0.00 0.00 0.00 82 1013.0
20260830141545 57 0 0.0 2.6 0.00 0.00 0.00 84 1013.0
20260830141024 57 262 0.9 2.6 0.00 0.00 0.00 87 1012.8
20260830140528 56 255 0.0 1.7 0.00 0.00 0.00 87 1013.0
20260830140047 56 0 0.0 1.7 0.00 0.00 0.00 86 1013.0
20260830135531 56 0 0.0 1.7 0.00 0.00 0.00 86 1012.9
20260830135027 56 0 0.0 1.7 0.00 0.00 0.00 86 1012.8
20260830134553 56 263 0.0 1.7 0.00 0.00 0.00 87 1012.8
20260830134025 56 0 0.0 2.6 0.00 0.00 0.00 88 1012.9
20260830133526 55 263 0.9 2.6 0.00 0.00 0.00 89 1013.1
20260830133053 54 268 0.9 2.6 0.00 0.00 0.00 91 1013.0
20260830132524 54 203 0.0 1.7 0.00 0.00 0.00 91 1012.9
20260830132024 54 203 0.0 0.0 0.00 0.00 0.00 91 1012.8
20260830131546 53 0 0.0 0.0 0.00 0.00 0.00 90 1012.8
20260830131027 53 0 0.0 0.0 0.00 0.00 0.00 90 1012.9
20260830130525 53 0 0.0 0.0 0.00 0.00 0.00 90 1012.8
20260830130104 53 0 0.0 0.0 0.00 0.00 0.00 89 1012.9
20260830125528 53 0 0.0 0.9 0.00 0.00 0.00 89 1012.8
20260830125025 53 0 0.0 1.7 0.00 0.00 0.00 89 1012.8
20260830124550 53 0 0.0 2.6 0.00 0.00 0.00 89 1012.9
20260830124028 53 203 0.9 2.6 0.00 0.00 0.00 89 1012.8
20260830123530 53 0 0.0 0.0 0.00 0.00 0.00 88 1012.8
20260830123048 53 0 0.0 0.0 0.00 0.00 0.00 88 1012.8
20260830122531 53 0 0.0 0.9 0.00 0.00 0.00 88 1012.8
20260830122023 54 0 0.0 0.9 0.00 0.00 0.00 87 1012.7
20260830121545 54 0 0.0 0.9 0.00 0.00 0.00 87 1012.8
20260830121024 54 0 0.0 1.7 0.00 0.00 0.00 87 1012.7
20260830120527 54 0 0.0 1.7 0.00 0.00 0.00 87 1012.4
20260830120054 54 0 0.0 0.9 0.00 0.00 0.00 87 1012.5
20260830115527 55 0 0.0 1.7 0.00 0.00 0.00 87 1012.6
20260830115027 55 203 0.0 1.7 0.00 0.00 0.00 86 1012.3
20260830114607 55 0 0.0 2.6 0.00 0.00 0.00 86 1012.4
20260830114026 55 203 0.9 2.6 0.00 0.00 0.00 86 1012.4
20260830113527 55 0 0.0 0.0 0.00 0.00 0.00 86 1012.3
20260830113052 55 0 0.0 0.0 0.00 0.00 0.00 85 1012.2
20260830112527 56 0 0.0 0.0 0.00 0.00 0.00 85 1012.1
20260830112025 56 0 0.0 0.0 0.00 0.00 0.00 85 1011.9
20260830111546 56 0 0.0 0.0 0.00 0.00 0.00 85 1011.8
20260830111028 56 0 0.0 0.0 0.00 0.00 0.00 84 1011.7
20260830110524 57 0 0.0 0.0 0.00 0.00 0.00 84 1011.7
20260830110049 57 0 0.0 0.0 0.00 0.00 0.00 83 1011.6
20260830105527 57 0 0.0 0.0 0.00 0.00 0.00 83 1011.7
20260830105027 57 0 0.0 1.7 0.00 0.00 0.00 83 1011.6
20260830104557 57 0 0.0 1.7 0.00 0.00 0.00 83 1011.6
20260830104027 57 26 0.9 3.5 0.00 0.00 0.00 83 1011.6
20260830103525 57 26 0.9 3.5 0.00 0.00 0.00 82 1011.6
20260830103051 58 27 1.7 4.3 0.00 0.00 0.00 82 1011.6
20260830102531 58 27 1.7 4.3 0.00 0.00 0.00 82 1011.7
20260830102027 58 52 0.9 2.6 0.00 0.00 0.00 83 1011.6
20260830101552 58 42 0.9 2.6 0.00 0.00 0.00 82 1011.6
20260830101029 58 86 0.0 1.7 0.00 0.00 0.00 82 1011.9
20260830100524 58 0 0.0 1.7 0.00 0.00 0.00 81 1012.1
20260830100049 58 86 0.0 2.6 0.00 0.00 0.00 81 1012.2
20260830095527 58 0 0.9 2.6 0.00 0.00 0.00 81 1012.4
20260830095025 58 0 0.9 2.6 0.00 0.00 0.00 81 1012.7
20260830094550 58 303 0.0 2.6 0.00 0.00 0.00 81 1012.8
20260830094027 58 299 0.0 7.0 0.00 0.00 0.00 82 1013.0
20260830093527 58 251 3.5 7.0 0.00 0.00 0.00 82 1013.6
20260830093045 58 252 2.6 5.2 0.00 0.00 0.00 83 1013.5
20260830092529 58 273 0.9 2.6 0.00 0.00 0.00 82 1012.7
20260830092027 58 273 0.0 1.7 0.00 0.00 0.00 82 1012.5
20260830091552 58 0 0.0 0.9 0.00 0.00 0.00 82 1012.4
20260830091029 58 0 0.0 1.7 0.00 0.00 0.00 82 1012.3
20260830090527 58 0 0.0 1.7 0.00 0.00 0.00 82 1012.4
20260830090053 58 273 0.9 1.7 0.00 0.00 0.00 82 1012.4
20260830085533 58 0 0.0 1.7 0.00 0.00 0.00 82 1012.4
20260830085030 58 273 0.9 1.7 0.00 0.00 0.00 81 1012.4
20260830084547 59 0 0.0 1.7 0.00 0.00 0.00 81 1012.3